Regional Weather Roundup
Issued by NWS San Diego, CA

Home | Current Version | Previous Version | Text Only | Print | Product List | Glossary On
Versions: 1 2 3 4 5 6 7 8 9 10 11 12 13 14 15 16 17 18 19 20 21 22 23 24 25 26 27 28 29 30 31 32 33 34 35 36 37 38 39 40 41 42 43 44 45 46 47 48 49 50
000
ASUS46 KSGX 081411
RWRSGX

SAN DIEGO HOURLY WEATHER ROUNDUP
NATIONAL WEATHER SERVICE SAN DIEGO CA
600 AM PST THU DEC 08 2016

NOTE: "FAIR" INDICATES FEW OR NO CLOUDS BELOW 12,000 FEET WITH NO
SIGNIFICANT WEATHER AND/OR OBSTRUCTIONS TO VISIBILITY.

CAZ042-043-060-061-PZZ750-775-081500-

GREATER SAN DIEGO AREA

CITY           SKY/WX    TMP DP  RH WIND       PRES   REMARKS
SAN DIEGO AP   PTCLDY    50  45  83 CALM      30.21R
NATIONAL CITY    N/A     48  44  87 CALM      30.20R
CHULA VISTA      N/A     46  44  93 E2        30.11R
IMPERIAL BEACH CLEAR     50  42  74 NE6       30.20R
BROWN FIELD    CLEAR     47  41  80 SE6       30.19R
MIRAMAR MCAS   CLEAR     49  44  83 E5        30.18R
MONTGOMERY FLD CLEAR     47  43  86 CALM      30.19R

$$

NORTH SAN DIEGO COUNTY

CITY           SKY/WX    TMP DP  RH WIND       PRES   REMARKS
CAMP PENDLETON CLEAR     40  40 100 CALM      30.20R FOG
OCEANSIDE AP   CLEAR     43  41  93 NE6       30.20R
OCEANSIDE HBR    N/A     47  44  87 NE2       30.22R
VISTA            N/A     42  38  83 CALM      30.17R
CARLSBAD       CLEAR     48  46  93 CALM      30.18R
DEL MAR          N/A     49  47  94 CALM      30.21R
LA JOLLA SCRIP   N/A     53  49  86 NE3       30.19R
FALLBROOK        N/A     48  44  87 CALM      30.19R
ESCONDIDO        N/A     45  41  87 CALM      30.22R
POWAY            N/A     42  39  90 CALM      30.22R

$$

EAST SAN DIEGO COUNTY

CITY           SKY/WX    TMP DP  RH WIND       PRES   REMARKS
RAMONA         CLEAR     35  32  88 CALM      30.19R
SANTEE LAKES     N/A     44  42  93 CALM      30.19R
LA MESA          N/A     48  43  81 CALM      30.13R
JAMUL            N/A     42  40  92 CALM      30.21R
DESCANSO N       N/A     36  31  81 NE6       30.19R WCI  31
CAMPO            N/A     32  27  81 CALM      30.15R

$$

ORANGE COUNTY AND THE LOS ANGELES BASIN

CITY           SKY/WX    TMP DP  RH WIND       PRES   REMARKS
JOHN WAYNE AP  PTCLDY    50  46  86 CALM      30.20R
LAGUNA BEACH     N/A     46  44  94 NW3       30.15R
LAKE FOREST FR   N/A     50  38  62 CALM      30.09R
HUNTINGTON BCH   N/A     46  45  98 CALM      30.22R
LOS ALAMITOS   MOCLDY    47  46  99 CALM      30.20R
FULLERTON      PTCLDY    47  45  93 CALM      30.19R FOG
LONG BEACH       N/A     51  46  83 CALM      30.20R
L.A. AP        MOCLDY    53  45  74 CALM      30.20R
L.A. DOWNTOWN  CLOUDY    53  42  66 CALM      30.19R

$$

THE INLAND EMPIRE

CITY           SKY/WX    TMP DP  RH WIND       PRES   REMARKS
CORONA         CLOUDY    42  40  92 CALM      30.22R
CHINO          CLOUDY    46  41  82 CALM      30.22R
ONTARIO        MOCLDY    48  40  73 NE3       30.20R
SAN BERNARDINO FAIR      42  33  72 CALM      30.20R
RIVERSIDE AP   CLEAR     44  36  73 NE3       30.21R
MORENO VALLEY    N/A     43  41  91 CALM      28.30R
MARCH ARB      CLEAR     36  36 100 CALM      30.20R
HORSETHIEF CYN   N/A     44  35  71 CALM      30.25R
PERRIS           N/A     40  38  93 CALM      30.25R
HEMET EAST       N/A     43  32  64 CALM      30.26R
FRENCH VALLEY  NOT AVBL
TEMECULA         N/A     41  40  96 CALM      30.25F

$$

SAN BERNARDINO AND RIVERSIDE COUNTY MOUNTAINS

CITY           SKY/WX    TMP DP  RH WIND       PRES   REMARKS
BIG BEAR AP    CLEAR     28  27  93 CALM      30.23R
ANGELUS OAKS     N/A     39  33  80 CALM      30.16R
PINE COVE        N/A     39  34  81 NW3       30.19R

$$

SOUTHERN DESERT INCLUDING THE COACHELLA VALLEY

CITY           SKY/WX    TMP DP  RH WIND       PRES   REMARKS
PALM SPRINGS   CLEAR     46  29  51 CALM      30.21R
PALM DESERT      N/A     43  32  66 CALM      26.93
THERMAL        CLEAR     36  25  64 CALM      30.19R
BLYTHE         CLEAR     41  10  28 W5        30.21R
IMPERIAL AP    CLEAR     42  28  57 W3        30.19R
EL CENTRO NAS  PTCLDY    41  24  51 W9        30.21R
YUMA AZ        CLEAR     48  14  25 NE3       30.19
MEXICALI       CLEAR     46  23  39 CALM      30.20

$$

UPPER DESERT

CITY           SKY/WX    TMP DP  RH WIND       PRES   REMARKS
VICTORVILLE AP   N/A     34  16  47 CALM      30.19S
HESPERIA         N/A     33  20  59 W3        30.41R
PALMDALE       CLOUDY    41  24  51 SE6       30.20R
LANCASTER      CLOUDY    40  21  46 CALM      30.20S
EDWARDS AFB    LGT RAIN  34  17  49 CALM      30.19R
DAGGETT        CLEAR     34  13  41 W6        30.22R WCI  29
29 PALMS N     CLEAR     37  11  34 NW8       30.28R WCI  31
NEEDLES        CLEAR     42  10  27 NW6       30.23R

$$

REGIONAL REPORTS

CITY           SKY/WX    TMP DP  RH WIND       PRES   REMARKS
SANTA BARBARA  CLOUDY    47  45  93 N3        30.19R
SANDBERG       CLOUDY    45  23  42 CALM      30.20R
LAS VEGAS NV   PTCLDY    36   9  32 CALM      30.24R
PHOENIX AZ     PTCLDY    46  38  73 SW5       30.16R
TIJUANA        CLEAR     46  37  71 CALM      30.21R
ENSENADA NW      N/A     52  32  45 CALM      30.16R

$$

OFFSHORE ISLANDS

CITY           SKY/WX    TMP DP  RH WIND       PRES   REMARKS
CATALINA ARPT  CLEAR     53  41  63 N5        30.20R
SAN NICOLAS IS CLEAR     50  32  50 NW10      30.20R

$$

MARINE AND OFFSHORE BUOY REPORTS

STATION/POSITION SKY/WX   TEMP    WIND        PRES    SWELL
                          AIR SEA DIR/SP/G            HT/PER/DIR
                          (F)     (DEG/KT/KT) (MB)    (FT/S/D)
TANNER BANKS               58 61  310/ 12/ 14 1022.6R   5/310/13
S CLEMENTE BASIN           60 62  360/  8/  8 1022.1R   3/280/12
SAN NICOLAS IS.               58                N/A     3/290/12
SO. S. ROSA ISLA           56 57  280/  6/  8 1022.4R   3/310/13
W. S. BARBARA CH           55 56   CALM  /  2 1022.4R   3/290/13
M. S. BARBARA CH                                N/A     2/250/11
S. MONICA BASIN            57 60  310/  8/ 12 1022.0R   2/170/16
S PEDRO CHANNEL               61                N/A     2/260/12
CMP PENDLETON NS              61                N/A     2/220/17
OCEANSIDE OFFSHR              62                N/A     2/200/15
TORREY PINES OTR              62                N/A     2/230/17
POINT LOMA SOUTH              62                N/A     2/270/13

$$




USA.gov is the U.S. government's official web portal to all federal, state and local government web resources and services.